{"data":{"norad_id":44552,"epoch":"2026-05-24T08:16:03.351072Z","epoch_age_seconds":134758,"freshness":"FRESH","line1":"1 44552U 19065A   26144.34448323  .00000175  00000+0  00000+0 0  9990","line2":"2 44552  62.7116 159.1737 6488260 272.1353  20.3581  2.00616985 48744","mean_motion":2.00616985,"eccentricity":0.648826,"inclination_deg":62.7116,"raan_deg":159.1737,"arg_perigee_deg":272.1353,"mean_anomaly_deg":20.3581,"bstar":0,"rev_number":4874,"period_min":717.78568499571,"perigee_km":2947.5119459954,"apogee_km":37407.486221052,"semimajor_km":26555.636083524,"source":"CELESTRAK","updated_at":"2026-05-25T13:37:56.003266Z"}}